Main page
Satellite images Climate Cyclones Lightning AirportsFAQ Languages Contact Newsletter About
Weather : Europe Africa North America South America Asia Australia-Oceania Others

macau-cn, Macau, Macau International Airport

45005

latitude: , longitude: China, elevation: 22-10N m


METAR: VMMC 220400Z 13007KT 9999 FEW015 27/22 Q1016 NOSIG